SCP
-0 0 0 -0 -0 -0 -0 -0 -0 -0 -0 -0 0 0 0 -0 -0 -0 -0 0 0 0 -0 0 0 0 0 0 0 0 0 0 0
0 0 0 -0 -0 0 -0 -0 -0 -0 0 0 0 0 -0 0 0 0 -0 0 0 0 -0 -0 -0 -0 0 -0 0 0 0 0 0
-0 0 0 0 -0 -0 -0 -0 -0 0 0 0 0 0 0 0 0 0 -0 0 0 0 0 0 0 -0 0 0 0 0 0 0 0
-0 -0 -0 -0 -0 -0 -0 -0 -0 -0 0 0 0 0 0 0 0 0 0 0 0 0 0 0 0 0 0 1 0 0 0 0 0
0 0 0 0 -0 0 -0 -0 -0 -0 -0 0 0 0 0 0 0 0 0 0 0 0 0 0 0 1 0 0 0 0 0 0 0
0 -0 -0 -0 -0 0 0 -0 -0 -0 0 0 0 0 0 0 0 0 0 0 0 0 0 0 0 0 0 0 0 0 0 0 0
-0 0 -0 0 0 0 0 0 0 0 0 0 0 0 0 0 0 0 0 0 0 0 0 0 0 0 0 0 0 0 0 0 0
-0 -0 0 0 0 0 0 0 0 1 0 0 0 0 0 1 1 1 0 0 0 0 0 0 0 0 0 0 0 0 1 1 0
-1 0 0 0 0 0 0 0 0 0 1 0 0 0 0 0 0 0 0 0 0 0 0 0 0 0 0 0 0 0 0 0 0
0 1 0 0 0 0 0 0 0 0 0 0 0 0 0 0 0 0 0 0 0 0 0 0 0 0 0 0 0 0 0 0 0
0 0 0 0 0 0 0 0 0 0 0 0 0 0 0 0 0 0 0 0 0 0 0 0 0 0 0 0 0 0 0 0 0
0 0 0 0 0 0 0 0 0 0 0 0 0 0 0 0 0 0 0 0 0 0 0 0 0 -0 0 0 0 0 0 0 0
0 0 0 0 0 0 0 0 0 0 0 0 0 -0 0 0 0 0 0 0 0 0 0 0 0 -0 0 0 0 0 0 0 0
0 0 0 0 0 0 0 0 0 0 0 0 0 0 0 0 0 0 0 0 0 0 0 0 0 0 0 0 0 0 0 0 0
0 0 0 0 0 0 0 0 0 0 0 0 0 0 0 0 0 0 0 0 0 0 0 0 0 0 0 0 0 0 0 0 0
0 0 0 0 0 0 0 0 0 0 0 0 0 0 0 0 0 0 0 0 0 0 0 0 0 0 0 0 0 0 0 0 0
1 1 0 0 0 0 0 0 0 0 0 0 0 0 0 0 0 0 0 0 0 0 0 0 0 0 0 0 0 0 0 0 0
0 0 0 0 0 0 0 0 0 0 0 0 0 0 0 0 0 0 0 0 0 -0 -0 -0 0 0 0 0 0 0 0 0 0
0 0 0 0 0 0 0 0 0 0 0 0 0 0 0 0 0 0 0 0 0 0 0 0 0 0 0 0 0 0 0 0 0
0 0 0 0 0 0 0 0 0 0 0 0 0 0 0 0 0 0 0 0 0 0 0 0 0 0 0 0 0 0 0 0 0
Wind_Speed_500mb
54 47 52 67 93 90 82 79 77 85 61 64 57 56 59 71 70 60 56 59 51 57 55 42 38 37 32 28 28 34 36 32 31
45 50 51 67 87 89 79 81 72 83 67 62 66 68 64 67 74 68 65 64 60 50 48 48 40 39 37 40 35 32 33 33 30
44 46 53 61 76 72 82 84 74 86 76 61 66 67 59 61 73 72 69 68 65 54 49 49 47 43 47 51 42 34 35 33 29
28 36 54 64 69 66 67 81 79 76 82 67 67 69 64 61 66 74 76 73 76 66 59 58 56 57 48 54 51 41 37 33 34
50 35 35 49 65 64 63 76 84 85 63 68 65 66 71 64 61 70 73 81 79 78 70 62 58 58 45 53 54 44 44 40 39
45 51 48 44 36 27 46 67 75 82 74 80 67 68 72 71 64 64 68 69 77 81 72 69 61 55 52 52 53 48 44 43 43
64 51 42 37 36 31 34 48 59 74 71 66 68 76 75 71 68 63 57 59 65 70 81 72 70 65 60 56 52 52 50 45 49
57 47 41 34 26 16 14 23 36 41 52 64 72 77 80 71 65 60 57 63 56 49 63 72 75 73 67 60 62 57 55 50 48
61 52 41 27 17 15 13 18 23 31 39 39 42 58 64 64 68 70 62 62 57 60 54 49 63 68 68 65 59 58 58 52 49
61 53 41 31 18 10 8 10 8 9 16 27 35 37 52 59 67 71 67 66 63 63 51 52 60 65 66 66 63 61 58 54 52
61 53 46 38 27 22 24 19 14 10 6 5 5 12 22 29 46 54 57 53 54 71 70 62 72 67 70 64 62 62 62 56 54
67 58 53 46 34 34 28 23 23 23 22 17 14 13 8 7 16 24 29 39 48 58 57 62 72 76 58 55 62 63 61 59 58
70 61 58 52 46 38 28 25 23 23 26 24 24 23 21 14 4 10 17 28 41 22 37 30 33 46 60 60 66 67 62 59 56
70 66 62 53 44 33 27 22 20 15 8 8 10 8 8 9 7 8 8 10 34 36 22 18 18 21 23 40 47 43 44 50 51
76 70 61 50 40 34 28 21 19 17 11 7 6 3 2 2 1 4 6 7 4 9 33 25 25 10 18 21 12 17 23 31 33
72 66 58 48 40 37 28 23 20 17 11 11 10 6 6 10 9 9 6 7 6 6 10 14 15 13 12 16 15 14 16 17 18
67 57 50 49 45 36 30 27 25 23 19 17 17 13 9 14 10 7 4 7 8 7 11 10 8 10 13 12 13 13 14 14 12
58 54 51 44 40 31 25 18 14 24 21 12 10 12 12 21 17 11 8 7 12 11 16 16 17 14 9 11 13 13 15 16 18
59 55 47 43 36 32 23 16 10 17 22 16 19 20 18 20 19 12 9 4 3 6 8 11 12 15 19 18 19 20 25 23 23
57 56 52 44 32 20 15 11 10 8 23 20 27 22 22 16 16 12 11 12 9 5 8 11 15 14 14 17 17 21 23 21 17
Wind_Direction_500mb
215 202 195 207 206 208 218 219 216 217 226 218 224 222 223 217 218 216 217 219 224 226 226 232 237 235 223 216 220 224 228 234 236
212 206 198 207 206 214 221 224 225 221 227 230 230 223 221 221 220 219 221 220 226 224 225 229 235 231 229 225 226 223 225 231 231
198 201 206 207 207 215 223 231 236 228 231 230 222 217 220 223 223 226 224 222 225 223 218 228 233 235 238 233 227 232 228 226 221
246 211 213 217 220 229 235 237 238 228 226 231 222 222 223 225 226 228 228 226 225 228 225 227 235 243 246 225 224 220 221 225 231
239 246 202 223 232 238 242 238 240 232 232 235 230 234 230 226 228 229 228 227 224 227 226 224 234 239 240 226 225 225 227 229 240
231 175 154 150 167 204 218 229 228 227 235 233 239 235 224 227 226 231 230 231 228 225 228 228 225 226 227 230 224 229 228 242 237
174 162 162 156 145 140 178 207 220 230 237 238 240 238 225 229 228 230 231 231 230 230 228 232 229 225 227 228 230 226 246 245 243
156 163 170 172 171 159 175 195 207 210 224 234 236 240 234 232 240 236 236 239 230 231 229 235 237 235 236 235 238 241 239 248 252
166 171 173 177 192 248 239 240 241 239 236 235 237 235 236 234 234 239 231 231 234 233 231 238 230 237 244 243 244 250 250 248 252
175 176 181 178 188 203 187 161 189 238 234 235 236 228 233 227 230 233 230 242 233 228 239 232 238 240 238 245 246 248 245 247 245
179 186 185 183 185 174 147 127 115 113 147 204 226 226 233 228 231 239 243 235 237 229 237 247 243 254 240 240 246 242 242 245 243
187 193 199 192 183 168 152 130 112 100 95 92 97 105 111 150 212 235 243 240 233 227 229 239 244 242 249 242 245 246 245 243 242
189 197 195 185 177 169 162 147 132 117 102 90 85 83 78 71 67 243 236 233 190 219 222 287 267 237 255 238 245 245 242 243 244
194 193 186 183 177 172 167 159 155 136 102 105 99 91 73 64 78 91 65 215 230 236 232 251 286 199 204 247 240 246 253 240 241
187 183 177 178 174 173 170 163 160 169 192 207 155 150 293 195 161 100 62 61 69 229 221 260 265 208 210 257 249 235 247 255 259
180 177 175 178 178 169 174 185 184 182 213 218 206 234 245 208 214 229 185 143 140 150 165 182 182 186 192 210 217 225 235 242 248
172 175 176 174 176 180 179 179 184 193 192 221 232 251 217 197 201 191 155 143 170 165 174 182 170 185 194 198 209 225 225 216 204
170 175 175 181 183 180 182 190 198 196 193 218 203 173 142 148 149 129 99 74 91 105 136 142 146 156 162 150 156 153 148 156 151
165 170 174 176 179 180 186 205 222 211 209 215 169 151 148 126 126 151 150 138 91 86 102 118 118 111 114 115 127 130 133 138 137
171 172 169 173 181 191 197 213 231 194 167 180 168 170 163 167 144 107 134 149 154 123 116 119 118 109 107 111 113 119 124 128 129
Wind_Speed_850mb
54 47 52 67 93 90 82 79 77 85 61 64 57 56 59 71 70 60 56 59 51 57 55 42 38 37 32 28 28 34 36 32 31
45 50 51 67 87 89 79 81 72 83 67 62 66 68 64 67 74 68 65 64 60 50 48 48 40 39 37 40 35 32 33 33 30
44 46 53 61 76 72 82 84 74 86 76 61 66 67 59 61 73 72 69 68 65 54 49 49 47 43 47 51 42 34 35 33 29
28 36 54 64 69 66 67 81 79 76 82 67 67 69 64 61 66 74 76 73 76 66 59 58 56 57 48 54 51 41 37 33 34
50 35 35 49 65 64 63 76 84 85 63 68 65 66 71 64 61 70 73 81 79 78 70 62 58 58 45 53 54 44 44 40 39
45 51 48 44 36 27 46 67 75 82 74 80 67 68 72 71 64 64 68 69 77 81 72 69 61 55 52 52 53 48 44 43 43
64 51 42 37 36 31 34 48 59 74 71 66 68 76 75 71 68 63 57 59 65 70 81 72 70 65 60 56 52 52 50 45 49
57 47 41 34 26 16 14 23 36 41 52 64 72 77 80 71 65 60 57 63 56 49 63 72 75 73 67 60 62 57 55 50 48
61 52 41 27 17 15 13 18 23 31 39 39 42 58 64 64 68 70 62 62 57 60 54 49 63 68 68 65 59 58 58 52 49
61 53 41 31 18 10 8 10 8 9 16 27 35 37 52 59 67 71 67 66 63 63 51 52 60 65 66 66 63 61 58 54 52
61 53 46 38 27 22 24 19 14 10 6 5 5 12 22 29 46 54 57 53 54 71 70 62 72 67 70 64 62 62 62 56 54
67 58 53 46 34 34 28 23 23 23 22 17 14 13 8 7 16 24 29 39 48 58 57 62 72 76 58 55 62 63 61 59 58
70 61 58 52 46 38 28 25 23 23 26 24 24 23 21 14 4 10 17 28 41 22 37 30 33 46 60 60 66 67 62 59 56
70 66 62 53 44 33 27 22 20 15 8 8 10 8 8 9 7 8 8 10 34 36 22 18 18 21 23 40 47 43 44 50 51
76 70 61 50 40 34 28 21 19 17 11 7 6 3 2 2 1 4 6 7 4 9 33 25 25 10 18 21 12 17 23 31 33
72 66 58 48 40 37 28 23 20 17 11 11 10 6 6 10 9 9 6 7 6 6 10 14 15 13 12 16 15 14 16 17 18
67 57 50 49 45 36 30 27 25 23 19 17 17 13 9 14 10 7 4 7 8 7 11 10 8 10 13 12 13 13 14 14 12
58 54 51 44 40 31 25 18 14 24 21 12 10 12 12 21 17 11 8 7 12 11 16 16 17 14 9 11 13 13 15 16 18
59 55 47 43 36 32 23 16 10 17 22 16 19 20 18 20 19 12 9 4 3 6 8 11 12 15 19 18 19 20 25 23 23
57 56 52 44 32 20 15 11 10 8 23 20 27 22 22 16 16 12 11 12 9 5 8 11 15 14 14 17 17 21 23 21 17
Wind_Direction_850mb
215 202 195 207 206 208 218 219 216 217 226 218 224 222 223 217 218 216 217 219 224 226 226 232 237 235 223 216 220 224 228 234 236
212 206 198 207 206 214 221 224 225 221 227 230 230 223 221 221 220 219 221 220 226 224 225 229 235 231 229 225 226 223 225 231 231
198 201 206 207 207 215 223 231 236 228 231 230 222 217 220 223 223 226 224 222 225 223 218 228 233 235 238 233 227 232 228 226 221
246 211 213 217 220 229 235 237 238 228 226 231 222 222 223 225 226 228 228 226 225 228 225 227 235 243 246 225 224 220 221 225 231
239 246 202 223 232 238 242 238 240 232 232 235 230 234 230 226 228 229 228 227 224 227 226 224 234 239 240 226 225 225 227 229 240
231 175 154 150 167 204 218 229 228 227 235 233 239 235 224 227 226 231 230 231 228 225 228 228 225 226 227 230 224 229 228 242 237
174 162 162 156 145 140 178 207 220 230 237 238 240 238 225 229 228 230 231 231 230 230 228 232 229 225 227 228 230 226 246 245 243
156 163 170 172 171 159 175 195 207 210 224 234 236 240 234 232 240 236 236 239 230 231 229 235 237 235 236 235 238 241 239 248 252
166 171 173 177 192 248 239 240 241 239 236 235 237 235 236 234 234 239 231 231 234 233 231 238 230 237 244 243 244 250 250 248 252
175 176 181 178 188 203 187 161 189 238 234 235 236 228 233 227 230 233 230 242 233 228 239 232 238 240 238 245 246 248 245 247 245
179 186 185 183 185 174 147 127 115 113 147 204 226 226 233 228 231 239 243 235 237 229 237 247 243 254 240 240 246 242 242 245 243
187 193 199 192 183 168 152 130 112 100 95 92 97 105 111 150 212 235 243 240 233 227 229 239 244 242 249 242 245 246 245 243 242
189 197 195 185 177 169 162 147 132 117 102 90 85 83 78 71 67 243 236 233 190 219 222 287 267 237 255 238 245 245 242 243 244
194 193 186 183 177 172 167 159 155 136 102 105 99 91 73 64 78 91 65 215 230 236 232 251 286 199 204 247 240 246 253 240 241
187 183 177 178 174 173 170 163 160 169 192 207 155 150 293 195 161 100 62 61 69 229 221 260 265 208 210 257 249 235 247 255 259
180 177 175 178 178 169 174 185 184 182 213 218 206 234 245 208 214 229 185 143 140 150 165 182 182 186 192 210 217 225 235 242 248
172 175 176 174 176 180 179 179 184 193 192 221 232 251 217 197 201 191 155 143 170 165 174 182 170 185 194 198 209 225 225 216 204
170 175 175 181 183 180 182 190 198 196 193 218 203 173 142 148 149 129 99 74 91 105 136 142 146 156 162 150 156 153 148 156 151
165 170 174 176 179 180 186 205 222 211 209 215 169 151 148 126 126 151 150 138 91 86 102 118 118 111 114 115 127 130 133 138 137
171 172 169 173 181 191 197 213 231 194 167 180 168 170 163 167 144 107 134 149 154 123 116 119 118 109 107 111 113 119 124 128 129